Regional Weather Roundup
Issued by NWS

Home | Current Version | Previous Version | Text Only | Print | Product List | Glossary On
Versions: 1 2 3 4 5 6 7 8 9 10 11 12 13 14 15 16 17 18 19 20 21 22 23 24 25 26 27 28 29 30 31 32 33 34 35 36 37 38 39 40 41 42 43 44 45 46 47 48 49 50
000
ASUS45 KBOU 250707
RWRCO

WEATHER ROUNDUP FOR COLORADO
NATIONAL WEATHER SERVICE DENVER/BOULDER CO
100 AM MDT FRI JUL 25 2014

NOTE: "FAIR" INDICATES FEW OR NO CLOUDS BELOW 12000 FEET WITH NO
SIGNIFICANT WEATHER AND/OR OBSTRUCTIONS TO VISIBILITY.

COZ001>005-013-030-031-250800-
...NORTHWEST COLORADO...

CITY           SKY/WX    TMP DP  RH WIND       PRES   REMARKS
CRAIG          PTCLDY    57  51  80 CALM      30.21R
HAYDEN         PTCLDY    64  43  45 E9        30.23S
MEEKER         PTCLDY    59  52  77 NE3       30.23S
MOUNT WERNER   NOT AVBL
STEAMBOAT SPGS PTCLDY    61  50  68 CALM      30.26S
WALDEN         PTCLDY    50  43  76 E6        30.35S
$$

COZ006>008-011-250800-
...WEST CENTRAL VALLEYS...

CITY           SKY/WX    TMP DP  RH WIND       PRES   REMARKS
GRAND JUNCTION MOCLDY    76  51  41 SE16      30.09F
MONTROSE       CLOUDY    70  53  54 E7        30.23F
EAGLE          MOCLDY    61  55  82 NE5       30.33F
RIFLE          MOCLDY    71  50  47 NE5       30.18S
DELTA          CLOUDY    72  51  47 E7        30.19S
NUCLA          NOT AVBL
$$

COZ017>023-064>068-250800-
...SOUTHWEST COLORADO...

CITY           SKY/WX    TMP DP  RH WIND       PRES   REMARKS
DURANGO        CLOUDY    69  50  50 NE7       30.30R
CORTEZ         LGT RAIN  70  52  52 NE10      30.22F
PAGOSA SPRINGS CLOUDY    68  47  46 NW8       30.40R
TELLURIDE      CLOUDY    55  52  88 CALM      30.51F
WOLF CREEK PAS NOT AVBL
$$

COZ009-010-012-014-032>034-037-058>063-250800-
...CENTRAL COLORADO...

CITY           SKY/WX    TMP DP  RH WIND       PRES   REMARKS
ASPEN          MOCLDY    56  49  77 S7        30.38F
BUENA VISTA    MOCLDY    62  47  58 NW13G20   30.38R
COPPER MTN     CLOUDY    48  41  76 W9        30.72R
BERTHOUD PASS  FAIR      45  32  61 MISG      30.71S
COTTONWOOD PAS MOCLDY    61  41  48 NW7G18    30.52S
GUNNISON       CLOUDY    55  46  71 N3        30.43S
KREMMLING      MOCLDY    61  43  51 CALM      30.34S
LEADVILLE      CLOUDY    55  42  61 N13G20    30.54R
MONARCH PASS   MOCLDY    46  39  76 W26       30.78S
SALIDA         MOCLDY   N/A N/A N/A NW6       30.42S
SUNLIGHT       MOCLDY    54  45  71 SE3       30.60F
WILKERSON PASS MOCLDY    54  37  54 W13G22    30.62F
$$

COZ069>075-250800-
...SAN LUIS VALLEY/SANGRE DE CRISTO MOUNTAINS...

CITY           SKY/WX    TMP DP  RH WIND       PRES   REMARKS
ALAMOSA        CLOUDY    61  51  70 SW8       30.37R
LA VETA PASS   PTCLDY    55  41  58 SW9G20    30.52F
SAGUACHE       CLOUDY    59  52  77 W6        30.40R
$$

COZ035-036-038>040-250800-
...NORTHERN COLORADO FRONT RANGE...

CITY           SKY/WX    TMP DP  RH WIND       PRES   REMARKS
DENVER INTL AP MOCLDY    74  50  42 SW15      30.07F
DMNS CITY PARK   N/A     71  52  52 S2        30.07S
AURORA         MOCLDY    70  52  52 SW9       30.10F
FRONT RANGE AP NOT AVBL
ERIE MUNI ARPT MOCLDY    71  52  52 S5        30.04F
BOULDER MUN AP MOCLDY    72  52  49 CALM      30.06S
CENTENNIAL     MOCLDY    73  49  42 SW14      30.11F
BROOMFIELD     MOCLDY    72  52  49 SW6       30.10F
FORT COLLINS   MOCLDY    70  52  52 S8        30.04F
LONGMONT       MOCLDY    71  55  56 SW5       30.06S
$$

COZ041-046-047-076>085-087-088-250800-
...PIKES PEAK/PALMER DIVIDE AND SOUTHERN FOOTHILLS...

CITY           SKY/WX    TMP DP  RH WIND       PRES   REMARKS
COLO. SPRINGS  MOCLDY    75  49  39 NW9       30.16R
A. F. ACADEMY  CLOUDY    70  50  49 NW13G18   30.18F
ELLICOTT       MOCLDY    71  50  47 N6        30.14R
FALCON         MOCLDY    70  48  45 NW12      30.21F
FORT CARSON    CLOUDY    70  54  56 N3        30.13R
LIMON          MOCLDY    68  55  63 CALM      30.08R
MONUMENT HILL  MOCLDY    63  50  63 SW7       30.21F
TRINIDAD       PTCLDY    73  46  38 S9        30.17S
$$

COZ042>045-048>051-090-091-250800-
...NORTHEAST COLORADO...

CITY           SKY/WX    TMP DP  RH WIND       PRES   REMARKS
GREELEY ARPT   MOCLDY    64  54  68 NW6       30.02F
AKRON          PTCLDY    74  51  44 W13       29.99F
BURLINGTON     CLOUDY    74  55  51 S6        29.96F
WRAY             N/A     68  57  69 SW5       29.90F
STERLING       PTCLDY    68  63  83 SW3       29.94S
HOLYOKE        PTCLDY    68  59  73 W7        29.91S
FORT MORGAN    PTCLDY    71  52  51 W9        30.00S
$$

COZ086-089-092>099-250800-
...SOUTHEAST COLORADO...

CITY           SKY/WX    TMP DP  RH WIND       PRES   REMARKS
PUEBLO         MOCLDY    74  52  46 W3        30.05S
LA JUNTA       PTCLDY    77  53  43 W14       30.00R
LAMAR          MOCLDY    84  46  26 SW12      29.90F
SPRINGFIELD      N/A     76  52  43 S16G23    30.05R
$$



USA.gov is the U.S. government's official web portal to all federal, state and local government web resources and services.